Showing default

MAUVE, 66756

Orbit data source: Space-Track

MAUVE, 66756 is a Hungarian payload satellite in SSO that was launched on Fri, 28 Nov 2025 UTC via an FALCON 9 launch vehicle from the Air Force Western Test Range (AFWTR). Payload-class satellites include a variety of spacecraft equipped with specific instruments for various scientific and technological missions. These include communications satellites like Starlink; space stations such as the ISS; scientific satellites like the Hubble; Earth observation satellites from companies like Planet Labs, Umbra, and HawkEye 360; GPS; miniature CubeSats for education and research; and military/defense satellites.

Loading next visibility...
Identifier
66756, 2025-276CU
Orbit
SSO
Country
Flag of HUHU / HUN
Related business
Manufacturer
C3S
Mission
Operational Commercial Astronomy
Bus & Motor
CUBESAT 16U, Unknown motor
Mass
24 kg wet, 24 kg dry
Launch date (UTC)
2025-11-28 (6 months ago)
Launch vehicle
FALCON 9
Launch site
Air Force Western Test Range (AFWTR)
Object type
Payload
Rocket body
Debris
Shape & HBR
Box + 2 Pan, 0.3 m
Radar Cross Section
0.124 m²

Expand to show TLE details & history
Last TLE update: 7 hours ago

TLE from 7 hours ago
0 MAUVE
1 66756U 25276CU  26144.89491763  .00007505  00000-0  34853-3 0  9999
2 66756  97.4210 218.9950 0002853  68.4574 291.6965 15.20292460 26895
Epoch: 2026-05-24T21:28Z
TLE epoch observation values (Epoch: 2026-05-24T21:28:40.883Z)
Latitude
-0.00002°
Longitude
14.33415°
Altitude
507.322 km
Speed
7.611 km/s
True Right ascension
14h 35m 58s
True Declination
0° 00' 00"
Sunlit
Object was in full shadow at epoch
Visualization orbit readout
Latitude
Unknown
Longitude
Unknown
Altitude
Unknown
Speed
Unknown
Apparent Right ascension
Unknown
Apparent Declination
Unknown
Sunlit
N/A
Visualization observer readout
Local Sidereal Time
13:55:54
Azimuth
Unknown
Elevation
Unknown
Doppler factor
Unknown
Orbital elements
Apogee altitude
503.887 km
Perigee altitude
499.961 km
Semi-major axis
6,880.061 km
Eccentricity
0.00029
Inclination
97.421°
RAAN
218.995°
Arg. of periapsis
68.4574°
True anomaly
291.66612°
Mean anomaly
291.6965°
Eccentric anomaly
291.68131°
Mean motion
3.80325 °/min
Orbital period
94.66 mins
BSTAR
0.00034853
Loading maneuver chart data...
Computing Atmospheric mass density...
Loading historical data...
Loading historical data...
Loading historical data...
Loading historical data...
Loading historical data...
Loading historical data...
Loading historical data...

Documentation

Showing up to 5 results
|